Regional Weather Roundup
Issued by NWS

Home | Current Version | Previous Version | Text Only | Print | Product List | Glossary On
Versions: 1 2 3 4 5 6 7 8 9 10 11 12 13 14 15 16 17 18 19 20 21 22 23 24 25 26 27 28 29 30 31 32 33 34 35 36 37 38 39 40 41 42 43 44 45 46 47 48 49 50
843
ASUS42 KKEY 262210
RWRKEY

FLORIDA REGIONAL WEATHER ROUNDUP FOR THE FLORIDA KEYS
NATIONAL WEATHER SERVICE KEY WEST FLORIDA
600 PM EDT SUN MAR 26 2017

...SOUTH FLORIDA AND THE KEYS...

CITY           SKY/WX    TMP DP  RH WIND       PRES   REMARKS
FORT MYERS     MOSUNNY   84  59  42 SE7       30.04S
SW REGIONAL AP PTSUNNY   81  58  45 E12       30.04S
NAPLES         PTSUNNY   80  65  59 W9        30.05R
MIAMI          PTSUNNY   78  62  57 E15       30.06S
WEST KENDALL   CLOUDY    77  62  59 E14       30.06R
HOMESTEAD      MOSUNNY   76  66  71 NE12      30.05S
MARATHON       SUNNY     80  65  59 E10G18    30.03S
BOCA CHICA NAS MOSUNNY   79  65  62 E16       30.03S
KEY WEST INTL  SUNNY     80  66  62 E13       30.04R

...INTERNATIONAL WEATHER...

CITY           SKY/WX    TMP DP  RH WIND       PRES   REMARKS
NASSAU BAHAMAS MOSUNNY   81  52  36 NE12      30.06R
CANCUN MEXICO  PTSUNNY   81  70  69 E10       29.97S
COZUMEL MEXICO MOSUNNY   82  66  57 SE12      29.94S

ADJACENT COASTAL WATERS...

STATION/POSITION TIME  SKY/WX   TEMP    WIND        PRES    WAVE
                                AIR SEA DIR/SP/G            HT/PER
                 (UTC)          (F)     (DEG/KT/KT) (MB)    (FT/S)
PULASKI SHOAL LI 2200            74      80/ 13/ 14 1017.3R
SAND KEY         2150            76     110/ 15/ 18 1017.3F
LONG KEY         2200            75 76  100/ 13/ 15 1017.4F
MOLASSES REEF    2200            75 77   90/ 17/ 18 1017.7S
FOWEY ROCKS      2200            74 76   70/ 16/ 18 1018.5S
Buoy 42097       2130                                 N/A     2/ 4

$$




USA.gov is the U.S. government's official web portal to all federal, state and local government web resources and services.